When you browse on this site, cookies collect data to enhance your experience and personalize the content and advertising you see.
Visit our Privacy Policy to learn more. By continuing to use the site, you agree to this use of cookies and data.

Stündliche Wetter Luchanskiy

Heute, 14 Juli, Dienstag

Zeit Temperatur Niederschläge Wind Luftdruck Luftfeuchtigkeit
00:00 +18°C° 0 mm 1 m/S 736 mmHg 92%
01:00 +17°C° 0.1 mm 2 m/S 736 mmHg 92%
02:00 +17°C° 0.1 mm 3 m/S 736 mmHg 92%
03:00 +17°C° 0 mm 3 m/S 736 mmHg 90%
04:00 +17°C° 0.4 mm 3 m/S 736 mmHg 91%
05:00 +16°C° 0.4 mm 3 m/S 735 mmHg 92%
06:00 +15°C° 0.4 mm 4 m/S 735 mmHg 93%
07:00 +16°C° 0 mm 5 m/S 734 mmHg 92%
08:00 +19°C° 0 mm 6 m/S 734 mmHg 90%
09:00 +20°C° 0 mm 7 m/S 734 mmHg 89%
10:00 +20°C° 0.1 mm 7 m/S 733 mmHg 89%
11:00 +20°C° 0.1 mm 7 m/S 733 mmHg 89%
12:00 +20°C° 0.1 mm 7 m/S 732 mmHg 89%
13:00 +20°C° 1.2 mm 6 m/S 732 mmHg 91%
14:00 +20°C° 1.2 mm 5 m/S 731 mmHg 93%
15:00 +20°C° 1.2 mm 4 m/S 731 mmHg 96%
16:00 +21°C° 2 mm 5 m/S 730 mmHg 94%
17:00 +21°C° 2 mm 5 m/S 730 mmHg 93%
18:00 +21°C° 2 mm 5 m/S 729 mmHg 91%
19:00 +20°C° 0.1 mm 6 m/S 729 mmHg 92%
20:00 +19°C° 0.1 mm 6 m/S 729 mmHg 93%
21:00 +17°C° 0.1 mm 6 m/S 730 mmHg 94%
22:00 +16°C° 0 mm 7 m/S 730 mmHg 93%
23:00 +16°C° 0 mm 7 m/S 730 mmHg 93%

Morgen, 15 Juli, Mittwoch

Zeit Temperatur Niederschläge Wind Luftdruck Luftfeuchtigkeit
00:00 +15°C° 0 mm 8 m/S 730 mmHg 93%
01:00 +15°C° 0 mm 8 m/S 730 mmHg 92%
02:00 +15°C° 0 mm 8 m/S 730 mmHg 92%
03:00 +13°C° 0 mm 8 m/S 730 mmHg 91%
04:00 +14°C° 0 mm 7 m/S 730 mmHg 91%
05:00 +14°C° 0 mm 7 m/S 730 mmHg 90%
06:00 +14°C° 0 mm 7 m/S 730 mmHg 89%
07:00 +14°C° 0.1 mm 7 m/S 730 mmHg 89%
08:00 +14°C° 0.1 mm 7 m/S 731 mmHg 89%
09:00 +13°C° 0.1 mm 8 m/S 731 mmHg 88%
10:00 +13°C° 0.1 mm 8 m/S 731 mmHg 87%
11:00 +13°C° 0.1 mm 8 m/S 731 mmHg 86%
12:00 +12°C° 0.1 mm 9 m/S 732 mmHg 85%
13:00 +12°C° 0.1 mm 9 m/S 732 mmHg 84%
14:00 +12°C° 0.1 mm 9 m/S 733 mmHg 84%
15:00 +12°C° 0.1 mm 9 m/S 733 mmHg 83%
16:00 +11°C° 0.1 mm 9 m/S 733 mmHg 84%
17:00 +11°C° 0.1 mm 9 m/S 733 mmHg 85%
18:00 +10°C° 0.1 mm 9 m/S 733 mmHg 86%
19:00 +10°C° 0.1 mm 9 m/S 733 mmHg 88%
20:00 +10°C° 0.1 mm 8 m/S 734 mmHg 89%
21:00 +10°C° 0.1 mm 8 m/S 734 mmHg 91%
22:00 +10°C° 0.1 mm 8 m/S 734 mmHg 92%
23:00 +10°C° 0.1 mm 8 m/S 734 mmHg 93%

übermorgen, 16 Juli, Donnerstag

Zeit Temperatur Niederschläge Wind Luftdruck Luftfeuchtigkeit
00:00 +10°C° 0.1 mm 7 m/S 734 mmHg 93%
01:00 +10°C° 0 mm 7 m/S 734 mmHg 93%
02:00 +10°C° 0 mm 7 m/S 734 mmHg 93%
03:00 +11°C° 0 mm 7 m/S 735 mmHg 93%
04:00 +11°C° 0 mm 6 m/S 735 mmHg 93%
05:00 +11°C° 0 mm 6 m/S 735 mmHg 93%
06:00 +11°C° 0 mm 6 m/S 735 mmHg 93%
07:00 +11°C° 0 mm 6 m/S 736 mmHg 92%
08:00 +11°C° 0 mm 6 m/S 736 mmHg 91%
09:00 +11°C° 0 mm 6 m/S 736 mmHg 90%
10:00 +13°C° 0 mm 6 m/S 737 mmHg 89%
11:00 +14°C° 0 mm 6 m/S 737 mmHg 87%
12:00 +14°C° 0 mm 5 m/S 737 mmHg 85%
13:00 +14°C° 0 mm 5 m/S 737 mmHg 84%
14:00 +15°C° 0 mm 5 m/S 738 mmHg 83%
15:00 +15°C° 0 mm 5 m/S 738 mmHg 82%
16:00 +15°C° 0 mm 5 m/S 738 mmHg 83%
17:00 +15°C° 0 mm 4 m/S 738 mmHg 84%
18:00 +17°C° 0 mm 4 m/S 738 mmHg 84%
19:00 +16°C° 0 mm 3 m/S 738 mmHg 87%
20:00 +14°C° 0 mm 3 m/S 738 mmHg 89%
21:00 +15°C° 0 mm 2 m/S 738 mmHg 92%
22:00 +13°C° 0 mm 3 m/S 738 mmHg 93%
23:00 +13°C° 0 mm 3 m/S 738 mmHg 93%

17 Juli, Freitag

Zeit Temperatur Niederschläge Wind Luftdruck Luftfeuchtigkeit
00:00 +13°C° 0 mm 3 m/S 738 mmHg 94%
01:00 +12°C° 0 mm 3 m/S 738 mmHg 94%
02:00 +12°C° 0 mm 3 m/S 738 mmHg 94%
03:00 +11°C° 0 mm 3 m/S 738 mmHg 94%
04:00 +12°C° 0 mm 3 m/S 739 mmHg 94%
05:00 +12°C° 0 mm 3 m/S 739 mmHg 93%
06:00 +12°C° 0 mm 3 m/S 739 mmHg 93%
07:00 +14°C° 0 mm 3 m/S 739 mmHg 88%
08:00 +17°C° 0 mm 3 m/S 739 mmHg 83%
09:00 +18°C° 0 mm 3 m/S 740 mmHg 79%
10:00 +19°C° 0.1 mm 3 m/S 740 mmHg 74%
11:00 +20°C° 0.1 mm 4 m/S 740 mmHg 69%
12:00 +21°C° 0.1 mm 4 m/S 740 mmHg 64%
13:00 +22°C° 0.1 mm 4 m/S 740 mmHg 65%
14:00 +22°C° 0.1 mm 4 m/S 740 mmHg 66%
15:00 +22°C° 0.1 mm 4 m/S 740 mmHg 66%
16:00 +22°C° 0.1 mm 4 m/S 740 mmHg 69%
17:00 +22°C° 0.1 mm 3 m/S 740 mmHg 72%
18:00 +21°C° 0.1 mm 3 m/S 740 mmHg 75%
19:00 +20°C° 0.1 mm 3 m/S 740 mmHg 79%
20:00 +19°C° 0.1 mm 3 m/S 740 mmHg 83%
21:00 +17°C° 0.1 mm 2 m/S 741 mmHg 87%
22:00 +17°C° 0 mm 2 m/S 741 mmHg 88%
23:00 +16°C° 0 mm 2 m/S 741 mmHg 89%

18 Juli, Samstag

Zeit Temperatur Niederschläge Wind Luftdruck Luftfeuchtigkeit
00:00 +16°C° 0 mm 2 m/S 741 mmHg 90%
01:00 +15°C° 0 mm 2 m/S 741 mmHg 90%
02:00 +15°C° 0 mm 2 m/S 741 mmHg 91%
03:00 +14°C° 0 mm 2 m/S 741 mmHg 91%
04:00 +14°C° 0 mm 2 m/S 742 mmHg 92%
05:00 +15°C° 0 mm 2 m/S 742 mmHg 92%
06:00 +15°C° 0 mm 2 m/S 742 mmHg 92%
07:00 +16°C° 0 mm 2 m/S 742 mmHg 87%
08:00 +18°C° 0 mm 2 m/S 743 mmHg 82%
09:00 +19°C° 0 mm 2 m/S 743 mmHg 78%
10:00 +20°C° 0 mm 2 m/S 743 mmHg 75%
11:00 +21°C° 0 mm 3 m/S 743 mmHg 72%
12:00 +21°C° 0 mm 3 m/S 743 mmHg 70%
13:00 +22°C° 0 mm 3 m/S 743 mmHg 67%
14:00 +22°C° 0 mm 3 m/S 743 mmHg 65%
15:00 +24°C° 0 mm 3 m/S 743 mmHg 62%
16:00 +22°C° 0 mm 3 m/S 743 mmHg 65%
17:00 +22°C° 0 mm 3 m/S 743 mmHg 67%
18:00 +23°C° 0 mm 2 m/S 743 mmHg 69%
19:00 +20°C° 0 mm 2 m/S 743 mmHg 74%
20:00 +19°C° 0 mm 2 m/S 743 mmHg 79%
21:00 +17°C° 0 mm 2 m/S 743 mmHg 84%
22:00 +16°C° 0 mm 2 m/S 743 mmHg 86%
23:00 +16°C° 0 mm 2 m/S 743 mmHg 88%

19 Juli, Sonntag

Zeit Temperatur Niederschläge Wind Luftdruck Luftfeuchtigkeit
00:00 +15°C° 0 mm 2 m/S 744 mmHg 90%
01:00 +15°C° 0 mm 2 m/S 744 mmHg 91%
02:00 +15°C° 0 mm 2 m/S 744 mmHg 92%
03:00 +14°C° 0 mm 2 m/S 743 mmHg 93%
04:00 +15°C° 0 mm 2 m/S 744 mmHg 92%
05:00 +15°C° 0 mm 2 m/S 744 mmHg 91%
06:00 +15°C° 0 mm 2 m/S 744 mmHg 90%
07:00 +17°C° 0 mm 2 m/S 743 mmHg 85%
08:00 +18°C° 0 mm 3 m/S 743 mmHg 79%
09:00 +20°C° 0 mm 3 m/S 743 mmHg 73%
10:00 +20°C° 0 mm 3 m/S 743 mmHg 68%
11:00 +21°C° 0 mm 3 m/S 743 mmHg 62%
12:00 +22°C° 0 mm 4 m/S 743 mmHg 57%
13:00 +22°C° 0 mm 4 m/S 743 mmHg 57%
14:00 +23°C° 0 mm 4 m/S 742 mmHg 57%
15:00 +23°C° 0 mm 4 m/S 742 mmHg 57%
16:00 +23°C° 0 mm 4 m/S 742 mmHg 60%
17:00 +22°C° 0 mm 3 m/S 741 mmHg 64%
18:00 +22°C° 0 mm 3 m/S 741 mmHg 67%
19:00 +20°C° 0 mm 2 m/S 741 mmHg 70%
20:00 +19°C° 0 mm 2 m/S 741 mmHg 73%
21:00 +17°C° 0 mm 2 m/S 741 mmHg 76%
22:00 +16°C° 0 mm 2 m/S 740 mmHg 78%
23:00 +16°C° 0 mm 2 m/S 740 mmHg 80%
Mehr zeigen